Time,TemperatureF,DewpointF,PressureIn,WindDirection,WindDirectionDegrees,WindSpeedMPH,WindSpeedGustMPH,Humidity,HourlyPrecipIn,Conditions,Clouds,dailyrainin,SoftwareType,DateUTC
2013-04-11 00:00:00,69.1,61.2,29.96,East,90,1.0,-999.0,76,0.00,,,0.00,Wunderground v.1.15,2013-04-11 10:00:00,
2013-04-11 00:05:00,69.1,61.2,29.96,East,90,1.0,-999.0,76,0.00,,,0.00,Wunderground v.1.15,2013-04-11 10:05:00,
2013-04-11 00:10:00,69.1,61.2,29.96,East,90,1.0,-999.0,76,0.00,,,0.00,Wunderground v.1.15,2013-04-11 10:10:00,
2013-04-11 00:15:00,69.1,61.2,29.96,East,90,1.0,-999.0,76,0.00,,,0.00,Wunderground v.1.15,2013-04-11 10:15:00,
2013-04-11 00:20:00,69.1,61.2,29.96,East,90,1.0,-999.0,76,0.00,,,0.00,Wunderground v.1.15,2013-04-11 10:20:00,
2013-04-11 00:25:00,69.1,61.2,29.96,East,90,1.0,-999.0,76,0.00,,,0.00,Wunderground v.1.15,2013-04-11 10:25:00,
2013-04-11 00:30:00,69.1,61.2,29.96,East,90,1.0,-999.0,76,0.00,,,0.00,Wunderground v.1.15,2013-04-11 10:30:00,
2013-04-11 00:35:00,69.1,61.2,29.96,East,90,1.0,-999.0,76,0.00,,,0.00,Wunderground v.1.15,2013-04-11 10:35:00,
2013-04-11 00:40:00,69.1,61.2,29.96,East,90,1.0,-999.0,76,0.00,,,0.00,Wunderground v.1.15,2013-04-11 10:40:00,
2013-04-11 00:45:00,68.4,60.5,29.96,East,90,2.0,-999.0,76,0.00,,,0.00,Wunderground v.1.15,2013-04-11 10:45:00,
2013-04-11 00:50:00,68.4,60.5,29.96,East,90,2.0,-999.0,76,0.00,,,0.00,Wunderground v.1.15,2013-04-11 10:50:00,
2013-04-11 00:55:00,68.4,60.5,29.96,East,90,2.0,-999.0,76,0.00,,,0.00,Wunderground v.1.15,2013-04-11 10:55:00,
2013-04-11 01:00:00,68.4,60.5,29.96,East,90,2.0,-999.0,76,0.00,,,0.00,Wunderground v.1.15,2013-04-11 11:00:00,
2013-04-11 01:05:00,68.4,60.5,29.96,East,90,2.0,-999.0,76,0.00,,,0.00,Wunderground v.1.15,2013-04-11 11:05:00,
2013-04-11 01:10:00,68.4,60.5,29.96,East,90,2.0,-999.0,76,0.00,,,0.00,Wunderground v.1.15,2013-04-11 11:10:00,
2013-04-11 01:15:00,69.4,62.2,29.94,East,90,1.0,-999.0,78,0.00,,,0.00,Wunderground v.1.15,2013-04-11 11:15:00,
2013-04-11 01:20:00,69.4,62.2,29.94,East,90,1.0,-999.0,78,0.00,,,0.00,Wunderground v.1.15,2013-04-11 11:20:00,
2013-04-11 01:25:00,69.4,62.2,29.94,East,90,1.0,-999.0,78,0.00,,,0.00,Wunderground v.1.15,2013-04-11 11:25:00,
2013-04-11 01:30:00,69.4,62.2,29.94,East,90,1.0,-999.0,78,0.00,,,0.00,Wunderground v.1.15,2013-04-11 11:30:00,
2013-04-11 01:35:00,69.4,62.2,29.94,East,90,1.0,-999.0,78,0.00,,,0.00,Wunderground v.1.15,2013-04-11 11:35:00,
2013-04-11 01:40:00,69.4,62.2,29.94,East,90,1.0,-999.0,78,0.00,,,0.00,Wunderground v.1.15,2013-04-11 11:40:00,
2013-04-11 01:45:00,68.0,61.2,29.93,East,90,0.0,-999.0,79,0.00,,,0.00,Wunderground v.1.15,2013-04-11 11:45:00,
2013-04-11 01:50:00,68.0,61.2,29.93,East,90,0.0,-999.0,79,0.00,,,0.00,Wunderground v.1.15,2013-04-11 11:50:00,
2013-04-11 01:55:00,68.0,61.2,29.93,East,90,0.0,-999.0,79,0.00,,,0.00,Wunderground v.1.15,2013-04-11 11:55:00,
2013-04-11 02:00:00,68.0,61.2,29.93,East,90,0.0,-999.0,79,0.00,,,0.00,Wunderground v.1.15,2013-04-11 12:00:00,
2013-04-11 02:05:00,68.0,61.2,29.93,East,90,0.0,-999.0,79,0.00,,,0.00,Wunderground v.1.15,2013-04-11 12:05:00,
2013-04-11 02:10:00,68.0,61.2,29.93,East,90,0.0,-999.0,79,0.00,,,0.00,Wunderground v.1.15,2013-04-11 12:10:00,
2013-04-11 02:15:00,66.6,60.2,29.92,East,90,0.0,-999.0,80,0.00,,,0.00,Wunderground v.1.15,2013-04-11 12:15:00,
2013-04-11 02:20:00,66.6,60.2,29.92,East,90,0.0,-999.0,80,0.00,,,0.00,Wunderground v.1.15,2013-04-11 12:20:00,
2013-04-11 02:25:00,66.6,60.2,29.92,East,90,0.0,-999.0,80,0.00,,,0.00,Wunderground v.1.15,2013-04-11 12:25:00,
2013-04-11 02:30:00,66.6,60.2,29.92,East,90,0.0,-999.0,80,0.00,,,0.00,Wunderground v.1.15,2013-04-11 12:30:00,
2013-04-11 02:35:00,66.6,60.2,29.92,East,90,0.0,-999.0,80,0.00,,,0.00,Wunderground v.1.15,2013-04-11 12:35:00,
2013-04-11 02:40:00,66.6,60.2,29.92,East,90,0.0,-999.0,80,0.00,,,0.00,Wunderground v.1.15,2013-04-11 12:40:00,
2013-04-11 02:45:00,67.4,60.7,29.91,East,90,1.0,-999.0,79,0.00,,,0.00,Wunderground v.1.15,2013-04-11 12:45:00,
2013-04-11 02:50:00,67.4,60.7,29.91,East,90,1.0,-999.0,79,0.00,,,0.00,Wunderground v.1.15,2013-04-11 12:50:00,
2013-04-11 02:55:00,67.4,60.7,29.91,East,90,1.0,-999.0,79,0.00,,,0.00,Wunderground v.1.15,2013-04-11 12:55:00,
2013-04-11 03:00:00,67.4,60.7,29.91,East,90,1.0,-999.0,79,0.00,,,0.00,Wunderground v.1.15,2013-04-11 13:00:00,
2013-04-11 03:05:00,67.4,60.7,29.91,East,90,1.0,-999.0,79,0.00,,,0.00,Wunderground v.1.15,2013-04-11 13:05:00,
2013-04-11 03:10:00,67.4,60.7,29.91,East,90,1.0,-999.0,79,0.00,,,0.00,Wunderground v.1.15,2013-04-11 13:10:00,
2013-04-11 03:15:00,67.3,60.9,29.91,East,90,0.0,-999.0,80,0.00,,,0.00,Wunderground v.1.15,2013-04-11 13:15:00,
2013-04-11 03:20:00,67.3,60.9,29.91,East,90,0.0,-999.0,80,0.00,,,0.00,Wunderground v.1.15,2013-04-11 13:20:00,
2013-04-11 03:25:00,67.3,60.9,29.91,East,90,0.0,-999.0,80,0.00,,,0.00,Wunderground v.1.15,2013-04-11 13:25:00,
2013-04-11 03:30:00,67.3,60.9,29.91,East,90,0.0,-999.0,80,0.00,,,0.00,Wunderground v.1.15,2013-04-11 13:30:00,
2013-04-11 03:35:00,67.3,60.9,29.91,East,90,0.0,-999.0,80,0.00,,,0.00,Wunderground v.1.15,2013-04-11 13:35:00,
2013-04-11 03:40:00,67.3,60.9,29.91,East,90,0.0,-999.0,80,0.00,,,0.00,Wunderground v.1.15,2013-04-11 13:40:00,
2013-04-11 03:45:00,66.4,60.4,29.91,East,90,1.0,-999.0,81,0.00,,,0.00,Wunderground v.1.15,2013-04-11 13:45:00,
2013-04-11 03:50:00,66.4,60.4,29.91,East,90,1.0,-999.0,81,0.00,,,0.00,Wunderground v.1.15,2013-04-11 13:50:00,
2013-04-11 03:55:00,66.4,60.4,29.91,East,90,1.0,-999.0,81,0.00,,,0.00,Wunderground v.1.15,2013-04-11 13:55:00,
2013-04-11 04:00:00,66.4,60.4,29.91,East,90,1.0,-999.0,81,0.00,,,0.00,Wunderground v.1.15,2013-04-11 14:00:00,
2013-04-11 04:05:00,66.4,60.4,29.91,East,90,1.0,-999.0,81,0.00,,,0.00,Wunderground v.1.15,2013-04-11 14:05:00,
2013-04-11 04:10:00,66.4,60.4,29.91,East,90,1.0,-999.0,81,0.00,,,0.00,Wunderground v.1.15,2013-04-11 14:10:00,
2013-04-11 04:15:00,66.7,61.0,29.91,East,90,0.0,-999.0,82,0.00,,,0.00,Wunderground v.1.15,2013-04-11 14:15:00,
2013-04-11 04:20:00,66.7,61.0,29.91,East,90,0.0,-999.0,82,0.00,,,0.00,Wunderground v.1.15,2013-04-11 14:20:00,
2013-04-11 04:25:00,66.7,61.0,29.91,East,90,0.0,-999.0,82,0.00,,,0.00,Wunderground v.1.15,2013-04-11 14:25:00,
2013-04-11 04:30:00,66.7,61.0,29.91,East,90,0.0,-999.0,82,0.00,,,0.00,Wunderground v.1.15,2013-04-11 14:30:00,
2013-04-11 04:35:00,66.7,61.0,29.91,East,90,0.0,-999.0,82,0.00,,,0.00,Wunderground v.1.15,2013-04-11 14:35:00,
2013-04-11 04:40:00,66.7,61.0,29.91,East,90,0.0,-999.0,82,0.00,,,0.00,Wunderground v.1.15,2013-04-11 14:40:00,
2013-04-11 04:45:00,67.9,63.2,29.92,East,90,1.0,-999.0,85,0.00,,,0.00,Wunderground v.1.15,2013-04-11 14:45:00,
2013-04-11 04:50:00,67.9,63.2,29.92,East,90,1.0,-999.0,85,0.00,,,0.00,Wunderground v.1.15,2013-04-11 14:50:00,
2013-04-11 04:55:00,67.9,63.2,29.92,East,90,1.0,-999.0,85,0.00,,,0.00,Wunderground v.1.15,2013-04-11 14:55:00,
2013-04-11 05:00:00,67.9,63.2,29.92,East,90,1.0,-999.0,85,0.00,,,0.00,Wunderground v.1.15,2013-04-11 15:00:00,
2013-04-11 05:05:00,67.9,63.2,29.92,East,90,1.0,-999.0,85,0.00,,,0.00,Wunderground v.1.15,2013-04-11 15:05:00,
2013-04-11 05:10:00,67.9,63.2,29.92,East,90,1.0,-999.0,85,0.00,,,0.00,Wunderground v.1.15,2013-04-11 15:10:00,
2013-04-11 05:15:00,69.4,64.4,29.93,SE,135,3.0,-999.0,84,0.00,,,0.00,Wunderground v.1.15,2013-04-11 15:15:00,
2013-04-11 05:20:00,69.4,64.4,29.93,SE,135,3.0,-999.0,84,0.00,,,0.00,Wunderground v.1.15,2013-04-11 15:20:00,
2013-04-11 05:25:00,69.4,64.4,29.93,SE,135,3.0,-999.0,84,0.00,,,0.00,Wunderground v.1.15,2013-04-11 15:25:00,
2013-04-11 05:30:00,69.4,64.4,29.93,SE,135,3.0,-999.0,84,0.00,,,0.00,Wunderground v.1.15,2013-04-11 15:30:00,
2013-04-11 05:35:00,69.4,64.4,29.93,SE,135,3.0,-999.0,84,0.00,,,0.00,Wunderground v.1.15,2013-04-11 15:35:00,
2013-04-11 05:40:00,69.4,64.4,29.93,SE,135,3.0,-999.0,84,0.00,,,0.00,Wunderground v.1.15,2013-04-11 15:40:00,
2013-04-11 05:45:00,69.0,64.0,29.95,SE,135,1.0,-999.0,84,0.00,,,0.00,Wunderground v.1.15,2013-04-11 15:45:00,
2013-04-11 05:50:00,69.0,64.0,29.95,SE,135,1.0,-999.0,84,0.00,,,0.00,Wunderground v.1.15,2013-04-11 15:50:00,
2013-04-11 05:55:00,69.0,64.0,29.95,SE,135,1.0,-999.0,84,0.00,,,0.00,Wunderground v.1.15,2013-04-11 15:55:00,
2013-04-11 06:00:00,69.0,64.0,29.95,SE,135,1.0,-999.0,84,0.00,,,0.00,Wunderground v.1.15,2013-04-11 16:00:00,
2013-04-11 06:05:00,69.0,64.0,29.95,SE,135,1.0,-999.0,84,0.00,,,0.00,Wunderground v.1.15,2013-04-11 16:05:00,
2013-04-11 06:10:00,69.0,64.0,29.95,SE,135,1.0,-999.0,84,0.00,,,0.00,Wunderground v.1.15,2013-04-11 16:10:00,
2013-04-11 06:15:00,67.9,62.9,29.96,SE,135,0.0,-999.0,84,0.00,,,0.00,Wunderground v.1.15,2013-04-11 16:15:00,
2013-04-11 06:20:00,67.9,62.9,29.96,SE,135,0.0,-999.0,84,0.00,,,0.00,Wunderground v.1.15,2013-04-11 16:20:00,
2013-04-11 06:25:00,67.9,62.9,29.96,SE,135,0.0,-999.0,84,0.00,,,0.00,Wunderground v.1.15,2013-04-11 16:25:00,
2013-04-11 06:30:00,67.9,62.9,29.96,SE,135,0.0,-999.0,84,0.00,,,0.00,Wunderground v.1.15,2013-04-11 16:30:00,
2013-04-11 06:35:00,67.9,62.9,29.96,SE,135,0.0,-999.0,84,0.00,,,0.00,Wunderground v.1.15,2013-04-11 16:35:00,
2013-04-11 06:40:00,67.9,62.9,29.96,SE,135,0.0,-999.0,84,0.00,,,0.00,Wunderground v.1.15,2013-04-11 16:40:00,
2013-04-11 06:45:00,66.8,61.8,29.96,SE,135,1.0,-999.0,84,0.00,,,0.00,Wunderground v.1.15,2013-04-11 16:45:00,
2013-04-11 06:50:00,66.8,61.8,29.96,SE,135,1.0,-999.0,84,0.00,,,0.00,Wunderground v.1.15,2013-04-11 16:50:00,
2013-04-11 06:55:00,66.8,61.8,29.96,SE,135,1.0,-999.0,84,0.00,,,0.00,Wunderground v.1.15,2013-04-11 16:55:00,
2013-04-11 07:00:00,66.8,61.8,29.96,SE,135,1.0,-999.0,84,0.00,,,0.00,Wunderground v.1.15,2013-04-11 17:00:00,
2013-04-11 07:05:00,66.8,61.8,29.96,SE,135,1.0,-999.0,84,0.00,,,0.00,Wunderground v.1.15,2013-04-11 17:05:00,
2013-04-11 07:10:00,66.8,61.8,29.96,SE,135,1.0,-999.0,84,0.00,,,0.00,Wunderground v.1.15,2013-04-11 17:10:00,
2013-04-11 07:15:00,68.2,61.1,29.97,SE,135,1.0,-999.0,78,0.00,,,0.00,Wunderground v.1.15,2013-04-11 17:15:00,
2013-04-11 07:20:00,68.2,61.1,29.97,SE,135,1.0,-999.0,78,0.00,,,0.00,Wunderground v.1.15,2013-04-11 17:20:00,
2013-04-11 07:25:00,68.2,61.1,29.97,SE,135,1.0,-999.0,78,0.00,,,0.00,Wunderground v.1.15,2013-04-11 17:25:00,
2013-04-11 07:30:00,68.2,61.1,29.97,SE,135,1.0,-999.0,78,0.00,,,0.00,Wunderground v.1.15,2013-04-11 17:30:00,
2013-04-11 07:35:00,68.2,61.1,29.97,SE,135,1.0,-999.0,78,0.00,,,0.00,Wunderground v.1.15,2013-04-11 17:35:00,
2013-04-11 07:40:00,68.2,61.1,29.97,SE,135,1.0,-999.0,78,0.00,,,0.00,Wunderground v.1.15,2013-04-11 17:40:00,
2013-04-11 07:45:00,73.2,61.2,29.97,SE,135,1.0,-999.0,66,0.00,,,0.00,Wunderground v.1.15,2013-04-11 17:45:00,
2013-04-11 07:50:00,73.2,61.2,29.97,SE,135,1.0,-999.0,66,0.00,,,0.00,Wunderground v.1.15,2013-04-11 17:50:00,
2013-04-11 07:55:00,73.2,61.2,29.97,SE,135,1.0,-999.0,66,0.00,,,0.00,Wunderground v.1.15,2013-04-11 17:55:00,
2013-04-11 08:00:00,73.2,61.2,29.97,SE,135,1.0,-999.0,66,0.00,,,0.00,Wunderground v.1.15,2013-04-11 18:00:00,
2013-04-11 08:05:00,73.2,61.2,29.97,SE,135,1.0,-999.0,66,0.00,,,0.00,Wunderground v.1.15,2013-04-11 18:05:00,
2013-04-11 08:10:00,73.2,61.2,29.97,SE,135,1.0,-999.0,66,0.00,,,0.00,Wunderground v.1.15,2013-04-11 18:10:00,
2013-04-11 08:15:00,77.5,62.5,29.98,SE,135,2.0,-999.0,60,0.00,,,0.00,Wunderground v.1.15,2013-04-11 18:15:00,
2013-04-11 08:20:00,77.5,62.5,29.98,SE,135,2.0,-999.0,60,0.00,,,0.00,Wunderground v.1.15,2013-04-11 18:20:00,
2013-04-11 08:25:00,77.5,62.5,29.98,SE,135,2.0,-999.0,60,0.00,,,0.00,Wunderground v.1.15,2013-04-11 18:25:00,
2013-04-11 08:30:00,77.5,62.5,29.98,SE,135,2.0,-999.0,60,0.00,,,0.00,Wunderground v.1.15,2013-04-11 18:30:00,
2013-04-11 08:35:00,77.5,62.5,29.98,SE,135,2.0,-999.0,60,0.00,,,0.00,Wunderground v.1.15,2013-04-11 18:35:00,
2013-04-11 08:40:00,77.5,62.5,29.98,SE,135,2.0,-999.0,60,0.00,,,0.00,Wunderground v.1.15,2013-04-11 18:40:00,
2013-04-11 08:45:00,79.7,63.6,29.97,NE,45,6.0,-999.0,58,0.00,,,0.00,Wunderground v.1.15,2013-04-11 18:45:00,
2013-04-11 08:50:00,79.7,63.6,29.97,NE,45,6.0,-999.0,58,0.00,,,0.00,Wunderground v.1.15,2013-04-11 18:50:00,
2013-04-11 08:55:00,79.7,63.6,29.97,NE,45,6.0,-999.0,58,0.00,,,0.00,Wunderground v.1.15,2013-04-11 18:55:00,
2013-04-11 09:00:00,79.8,63.7,29.97,NE,41,6.0,6.0,58,0.00,,,0.00,Wunderground v.1.15,2013-04-11 19:00:00,
2013-04-11 09:05:00,79.7,63.6,29.97,NE,45,6.0,-999.0,58,0.00,,,0.00,Wunderground v.1.15,2013-04-11 19:05:00,
2013-04-11 09:10:00,79.7,63.6,29.97,NE,45,6.0,-999.0,58,0.00,,,0.00,Wunderground v.1.15,2013-04-11 19:10:00,
2013-04-11 09:15:00,80.3,66.1,29.97,NE,45,7.0,-999.0,62,0.00,,,0.00,Wunderground v.1.15,2013-04-11 19:15:00,
2013-04-11 09:20:00,80.3,66.1,29.97,NE,45,7.0,-999.0,62,0.00,,,0.00,Wunderground v.1.15,2013-04-11 19:20:00,
2013-04-11 09:25:00,80.3,66.1,29.97,NE,45,7.0,-999.0,62,0.00,,,0.00,Wunderground v.1.15,2013-04-11 19:25:00,
2013-04-11 09:30:00,80.3,66.1,29.97,NE,45,7.0,-999.0,62,0.00,,,0.00,Wunderground v.1.15,2013-04-11 19:30:00,
2013-04-11 09:35:00,80.3,66.1,29.97,NE,45,7.0,-999.0,62,0.00,,,0.00,Wunderground v.1.15,2013-04-11 19:35:00,
2013-04-11 09:40:00,80.3,66.1,29.97,NE,45,7.0,-999.0,62,0.00,,,0.00,Wunderground v.1.15,2013-04-11 19:40:00,
2013-04-11 09:45:00,80.0,65.8,29.95,NE,45,7.0,-999.0,62,0.00,,,0.00,Wunderground v.1.15,2013-04-11 19:45:00,
2013-04-11 09:50:00,80.0,65.8,29.95,NE,45,7.0,-999.0,62,0.00,,,0.00,Wunderground v.1.15,2013-04-11 19:50:00,
2013-04-11 09:55:00,80.0,65.8,29.95,NE,45,7.0,-999.0,62,0.00,,,0.00,Wunderground v.1.15,2013-04-11 19:55:00,
2013-04-11 10:00:00,80.0,65.8,29.95,NE,45,7.0,-999.0,62,0.00,,,0.00,Wunderground v.1.15,2013-04-11 20:00:00,
2013-04-11 10:05:00,80.0,65.8,29.95,NE,45,7.0,-999.0,62,0.00,,,0.00,Wunderground v.1.15,2013-04-11 20:05:00,
2013-04-11 10:10:00,80.0,65.8,29.95,NE,45,7.0,-999.0,62,0.00,,,0.00,Wunderground v.1.15,2013-04-11 20:10:00,
2013-04-11 10:15:00,82.1,66.8,29.94,NE,45,8.0,-999.0,60,0.00,,,0.00,Wunderground v.1.15,2013-04-11 20:15:00,
2013-04-11 10:20:00,82.1,66.8,29.94,NE,45,8.0,-999.0,60,0.00,,,0.00,Wunderground v.1.15,2013-04-11 20:20:00,
2013-04-11 10:25:00,82.1,66.8,29.94,NE,45,8.0,-999.0,60,0.00,,,0.00,Wunderground v.1.15,2013-04-11 20:25:00,
2013-04-11 10:30:00,82.1,66.8,29.94,NE,45,8.0,-999.0,60,0.00,,,0.00,Wunderground v.1.15,2013-04-11 20:30:00,
2013-04-11 10:35:00,82.1,66.8,29.94,NE,45,8.0,-999.0,60,0.00,,,0.00,Wunderground v.1.15,2013-04-11 20:35:00,
2013-04-11 10:40:00,82.1,66.8,29.94,NE,45,8.0,-999.0,60,0.00,,,0.00,Wunderground v.1.15,2013-04-11 20:40:00,
2013-04-11 10:45:00,81.5,65.8,29.94,East,90,3.0,-999.0,59,0.00,,,0.00,Wunderground v.1.15,2013-04-11 20:45:00,
2013-04-11 10:50:00,81.5,65.8,29.94,East,90,3.0,-999.0,59,0.00,,,0.00,Wunderground v.1.15,2013-04-11 20:50:00,
2013-04-11 10:55:00,81.5,65.8,29.94,East,90,3.0,-999.0,59,0.00,,,0.00,Wunderground v.1.15,2013-04-11 20:55:00,
2013-04-11 11:00:00,81.5,65.8,29.94,East,90,3.0,-999.0,59,0.00,,,0.00,Wunderground v.1.15,2013-04-11 21:00:00,
2013-04-11 11:05:00,81.5,65.8,29.94,East,90,3.0,-999.0,59,0.00,,,0.00,Wunderground v.1.15,2013-04-11 21:05:00,
2013-04-11 11:10:00,81.5,65.8,29.94,East,90,3.0,-999.0,59,0.00,,,0.00,Wunderground v.1.15,2013-04-11 21:10:00,
2013-04-11 11:15:00,82.4,67.1,29.94,ENE,68,5.0,-999.0,60,0.00,,,0.00,Wunderground v.1.15,2013-04-11 21:15:00,
2013-04-11 11:20:00,82.4,67.1,29.94,ENE,68,5.0,-999.0,60,0.00,,,0.00,Wunderground v.1.15,2013-04-11 21:20:00,
2013-04-11 11:25:00,82.4,67.1,29.94,ENE,68,5.0,-999.0,60,0.00,,,0.00,Wunderground v.1.15,2013-04-11 21:25:00,
2013-04-11 11:30:00,82.4,67.1,29.94,ENE,68,5.0,-999.0,60,0.00,,,0.00,Wunderground v.1.15,2013-04-11 21:30:00,
2013-04-11 11:35:00,82.4,67.1,29.94,ENE,68,5.0,-999.0,60,0.00,,,0.00,Wunderground v.1.15,2013-04-11 21:35:00,
2013-04-11 11:40:00,82.4,67.1,29.94,ENE,68,5.0,-999.0,60,0.00,,,0.00,Wunderground v.1.15,2013-04-11 21:40:00,
2013-04-11 11:45:00,81.1,67.3,29.93,NE,45,4.0,-999.0,63,0.00,,,0.00,Wunderground v.1.15,2013-04-11 21:45:00,
2013-04-11 11:50:00,81.1,67.3,29.93,NE,45,4.0,-999.0,63,0.00,,,0.00,Wunderground v.1.15,2013-04-11 21:50:00,
2013-04-11 11:55:00,81.1,67.3,29.93,NE,45,4.0,-999.0,63,0.00,,,0.00,Wunderground v.1.15,2013-04-11 21:55:00,
2013-04-11 12:00:00,81.1,67.3,29.93,NE,45,4.0,-999.0,63,0.00,,,0.00,Wunderground v.1.15,2013-04-11 22:00:00,
2013-04-11 12:05:00,81.1,67.3,29.93,NE,45,4.0,-999.0,63,0.00,,,0.00,Wunderground v.1.15,2013-04-11 22:05:00,
2013-04-11 12:10:00,81.1,67.3,29.93,NE,45,4.0,-999.0,63,0.00,,,0.00,Wunderground v.1.15,2013-04-11 22:10:00,
2013-04-11 12:15:00,79.8,66.5,29.93,SW,225,3.0,-999.0,64,0.00,,,0.00,Wunderground v.1.15,2013-04-11 22:15:00,
2013-04-11 12:20:00,79.8,66.5,29.93,SW,225,3.0,-999.0,64,0.00,,,0.00,Wunderground v.1.15,2013-04-11 22:20:00,
2013-04-11 12:25:00,79.8,66.5,29.93,SW,225,3.0,-999.0,64,0.00,,,0.00,Wunderground v.1.15,2013-04-11 22:25:00,
2013-04-11 12:30:00,79.8,66.5,29.93,SW,225,3.0,-999.0,64,0.00,,,0.00,Wunderground v.1.15,2013-04-11 22:30:00,
2013-04-11 12:35:00,79.8,66.5,29.93,SW,225,3.0,-999.0,64,0.00,,,0.00,Wunderground v.1.15,2013-04-11 22:35:00,
2013-04-11 12:40:00,79.8,66.5,29.93,SW,225,3.0,-999.0,64,0.00,,,0.00,Wunderground v.1.15,2013-04-11 22:40:00,
2013-04-11 12:45:00,78.4,66.5,29.92,WSW,248,2.0,-999.0,67,0.00,,,0.00,Wunderground v.1.15,2013-04-11 22:45:00,
2013-04-11 12:50:00,78.4,66.5,29.92,WSW,248,2.0,-999.0,67,0.00,,,0.00,Wunderground v.1.15,2013-04-11 22:50:00,
2013-04-11 12:55:00,78.4,66.5,29.92,WSW,248,2.0,-999.0,67,0.00,,,0.00,Wunderground v.1.15,2013-04-11 22:55:00,
2013-04-11 13:00:00,78.4,66.5,29.92,WSW,248,2.0,-999.0,67,0.00,,,0.00,Wunderground v.1.15,2013-04-11 23:00:00,
2013-04-11 13:05:00,78.4,66.5,29.92,WSW,248,2.0,-999.0,67,0.00,,,0.00,Wunderground v.1.15,2013-04-11 23:05:00,
2013-04-11 13:10:00,78.4,66.5,29.92,WSW,248,2.0,-999.0,67,0.00,,,0.00,Wunderground v.1.15,2013-04-11 23:10:00,
2013-04-11 13:15:00,77.4,66.0,29.91,WSW,248,2.0,-999.0,68,0.00,,,0.00,Wunderground v.1.15,2013-04-11 23:15:00,
2013-04-11 13:20:00,77.4,66.0,29.91,WSW,248,2.0,-999.0,68,0.00,,,0.00,Wunderground v.1.15,2013-04-11 23:20:00,
2013-04-11 13:25:00,77.4,66.0,29.91,WSW,248,2.0,-999.0,68,0.00,,,0.00,Wunderground v.1.15,2013-04-11 23:25:00,
2013-04-11 13:30:00,77.4,66.0,29.91,WSW,248,2.0,-999.0,68,0.00,,,0.00,Wunderground v.1.15,2013-04-11 23:30:00,
2013-04-11 13:35:00,77.4,66.0,29.91,WSW,248,2.0,-999.0,68,0.00,,,0.00,Wunderground v.1.15,2013-04-11 23:35:00,
2013-04-11 13:40:00,77.4,66.0,29.91,WSW,248,2.0,-999.0,68,0.00,,,0.00,Wunderground v.1.15,2013-04-11 23:40:00,
2013-04-11 13:45:00,78.2,66.3,29.89,ENE,68,5.0,-999.0,67,0.00,,,0.00,Wunderground v.1.15,2013-04-11 23:45:00,
2013-04-11 13:50:00,78.2,66.3,29.89,ENE,68,5.0,-999.0,67,0.00,,,0.00,Wunderground v.1.15,2013-04-11 23:50:00,
2013-04-11 13:55:00,78.2,66.3,29.89,ENE,68,5.0,-999.0,67,0.00,,,0.00,Wunderground v.1.15,2013-04-11 23:55:00,
2013-04-11 14:00:00,78.2,66.3,29.89,ENE,68,5.0,-999.0,67,0.00,,,0.00,Wunderground v.1.15,2013-04-12 00:00:00,
2013-04-11 14:05:00,78.2,66.3,29.89,ENE,68,5.0,-999.0,67,0.00,,,0.00,Wunderground v.1.15,2013-04-12 00:05:00,
2013-04-11 14:10:00,78.2,66.3,29.89,ENE,68,5.0,-999.0,67,0.00,,,0.00,Wunderground v.1.15,2013-04-12 00:10:00,
2013-04-11 14:15:00,79.4,66.6,29.88,NE,45,6.0,-999.0,65,0.00,,,0.00,Wunderground v.1.15,2013-04-12 00:15:00,
2013-04-11 14:20:00,79.4,66.6,29.88,NE,45,6.0,-999.0,65,0.00,,,0.00,Wunderground v.1.15,2013-04-12 00:20:00,
2013-04-11 14:25:00,79.4,66.6,29.88,NE,45,6.0,-999.0,65,0.00,,,0.00,Wunderground v.1.15,2013-04-12 00:25:00,
2013-04-11 14:30:00,79.4,66.6,29.88,NE,45,6.0,-999.0,65,0.00,,,0.00,Wunderground v.1.15,2013-04-12 00:30:00,
2013-04-11 14:35:00,79.4,66.6,29.88,NE,45,6.0,-999.0,65,0.00,,,0.00,Wunderground v.1.15,2013-04-12 00:35:00,
2013-04-11 14:40:00,79.4,66.6,29.88,NE,45,6.0,-999.0,65,0.00,,,0.00,Wunderground v.1.15,2013-04-12 00:40:00,
2013-04-11 14:45:00,79.2,66.0,29.88,ENE,68,5.0,-999.0,64,0.00,,,0.00,Wunderground v.1.15,2013-04-12 00:45:00,
2013-04-11 14:50:00,79.2,66.0,29.88,ENE,68,5.0,-999.0,64,0.00,,,0.00,Wunderground v.1.15,2013-04-12 00:50:00,
2013-04-11 14:55:00,79.2,66.0,29.88,ENE,68,5.0,-999.0,64,0.00,,,0.00,Wunderground v.1.15,2013-04-12 00:55:00,
2013-04-11 15:00:00,79.2,66.0,29.88,ENE,68,5.0,-999.0,64,0.00,,,0.00,Wunderground v.1.15,2013-04-12 01:00:00,
2013-04-11 15:05:00,79.2,66.0,29.88,ENE,68,5.0,-999.0,64,0.00,,,0.00,Wunderground v.1.15,2013-04-12 01:05:00,
2013-04-11 15:10:00,79.2,66.0,29.88,ENE,68,5.0,-999.0,64,0.00,,,0.00,Wunderground v.1.15,2013-04-12 01:10:00,
2013-04-11 15:15:00,80.6,65.9,29.87,ENE,68,4.0,-999.0,61,0.00,,,0.00,Wunderground v.1.15,2013-04-12 01:15:00,
2013-04-11 15:20:00,80.6,65.9,29.87,ENE,68,4.0,-999.0,61,0.00,,,0.00,Wunderground v.1.15,2013-04-12 01:20:00,
2013-04-11 15:25:00,80.6,65.9,29.87,ENE,68,4.0,-999.0,61,0.00,,,0.00,Wunderground v.1.15,2013-04-12 01:25:00,
2013-04-11 15:30:00,80.6,65.9,29.87,ENE,68,4.0,-999.0,61,0.00,,,0.00,Wunderground v.1.15,2013-04-12 01:30:00,
2013-04-11 15:35:00,80.6,65.9,29.87,ENE,68,4.0,-999.0,61,0.00,,,0.00,Wunderground v.1.15,2013-04-12 01:35:00,
2013-04-11 15:40:00,80.6,65.9,29.87,ENE,68,4.0,-999.0,61,0.00,,,0.00,Wunderground v.1.15,2013-04-12 01:40:00,
2013-04-11 15:45:00,80.7,64.5,29.87,ENE,68,3.0,-999.0,58,0.00,,,0.00,Wunderground v.1.15,2013-04-12 01:45:00,
2013-04-11 15:50:00,80.7,64.5,29.87,ENE,68,3.0,-999.0,58,0.00,,,0.00,Wunderground v.1.15,2013-04-12 01:50:00,
2013-04-11 15:55:00,80.7,64.5,29.87,ENE,68,3.0,-999.0,58,0.00,,,0.00,Wunderground v.1.15,2013-04-12 01:55:00,
2013-04-11 16:00:00,80.7,64.5,29.87,ENE,68,3.0,-999.0,58,0.00,,,0.00,Wunderground v.1.15,2013-04-12 02:00:00,
2013-04-11 16:05:00,80.7,64.5,29.87,ENE,68,3.0,-999.0,58,0.00,,,0.00,Wunderground v.1.15,2013-04-12 02:05:00,
2013-04-11 16:10:00,80.7,64.5,29.87,ENE,68,3.0,-999.0,58,0.00,,,0.00,Wunderground v.1.15,2013-04-12 02:10:00,
2013-04-11 16:15:00,78.9,65.2,29.87,SW,225,3.0,-999.0,63,0.00,,,0.00,Wunderground v.1.15,2013-04-12 02:15:00,
2013-04-11 16:20:00,78.9,65.2,29.87,SW,225,3.0,-999.0,63,0.00,,,0.00,Wunderground v.1.15,2013-04-12 02:20:00,
2013-04-11 16:25:00,78.9,65.2,29.87,SW,225,3.0,-999.0,63,0.00,,,0.00,Wunderground v.1.15,2013-04-12 02:25:00,
2013-04-11 16:30:00,78.9,65.2,29.87,SW,225,3.0,-999.0,63,0.00,,,0.00,Wunderground v.1.15,2013-04-12 02:30:00,
2013-04-11 16:35:00,78.9,65.2,29.87,SW,225,3.0,-999.0,63,0.00,,,0.00,Wunderground v.1.15,2013-04-12 02:35:00,
2013-04-11 16:40:00,78.9,65.2,29.87,SW,225,3.0,-999.0,63,0.00,,,0.00,Wunderground v.1.15,2013-04-12 02:40:00,
2013-04-11 16:45:00,78.9,66.1,29.87,SW,225,2.0,-999.0,65,0.00,,,0.00,Wunderground v.1.15,2013-04-12 02:45:00,
2013-04-11 16:50:00,78.9,66.1,29.87,SW,225,2.0,-999.0,65,0.00,,,0.00,Wunderground v.1.15,2013-04-12 02:50:00,
2013-04-11 16:55:00,78.9,66.1,29.87,SW,225,2.0,-999.0,65,0.00,,,0.00,Wunderground v.1.15,2013-04-12 02:55:00,
2013-04-11 17:00:00,78.9,66.1,29.87,SW,225,2.0,-999.0,65,0.00,,,0.00,Wunderground v.1.15,2013-04-12 03:00:00,
2013-04-11 17:05:00,78.9,66.1,29.87,SW,225,2.0,-999.0,65,0.00,,,0.00,Wunderground v.1.15,2013-04-12 03:05:00,
2013-04-11 17:10:00,78.9,66.1,29.87,SW,225,2.0,-999.0,65,0.00,,,0.00,Wunderground v.1.15,2013-04-12 03:10:00,
2013-04-11 17:15:00,77.9,66.5,29.87,SW,225,2.0,-999.0,68,0.00,,,0.00,Wunderground v.1.15,2013-04-12 03:15:00,
2013-04-11 17:20:00,77.9,66.5,29.87,SW,225,2.0,-999.0,68,0.00,,,0.00,Wunderground v.1.15,2013-04-12 03:20:00,
2013-04-11 17:25:00,77.9,66.5,29.87,SW,225,2.0,-999.0,68,0.00,,,0.00,Wunderground v.1.15,2013-04-12 03:25:00,
2013-04-11 17:30:00,77.9,66.5,29.87,SW,225,2.0,-999.0,68,0.00,,,0.00,Wunderground v.1.15,2013-04-12 03:30:00,
2013-04-11 17:35:00,77.9,66.5,29.87,SW,225,2.0,-999.0,68,0.00,,,0.00,Wunderground v.1.15,2013-04-12 03:35:00,
2013-04-11 17:40:00,77.9,66.5,29.87,SW,225,2.0,-999.0,68,0.00,,,0.00,Wunderground v.1.15,2013-04-12 03:40:00,
2013-04-11 17:45:00,77.6,67.4,29.89,SW,225,1.0,-999.0,71,0.00,,,0.00,Wunderground v.1.15,2013-04-12 03:45:00,
2013-04-11 17:50:00,77.6,67.4,29.89,SW,225,1.0,-999.0,71,0.00,,,0.00,Wunderground v.1.15,2013-04-12 03:50:00,
2013-04-11 17:55:00,77.6,67.4,29.89,SW,225,1.0,-999.0,71,0.00,,,0.00,Wunderground v.1.15,2013-04-12 03:55:00,
2013-04-11 18:00:00,77.6,67.4,29.89,SW,225,1.0,-999.0,71,0.00,,,0.00,Wunderground v.1.15,2013-04-12 04:00:00,
2013-04-11 18:05:00,77.6,67.4,29.89,SW,225,1.0,-999.0,71,0.01,,,0.01,Wunderground v.1.15,2013-04-12 04:05:00,
2013-04-11 18:10:00,77.6,67.4,29.89,SW,225,1.0,-999.0,71,0.01,,,0.01,Wunderground v.1.15,2013-04-12 04:10:00,
2013-04-11 18:15:00,75.7,66.0,29.89,SW,225,0.0,-999.0,72,0.01,,,0.01,Wunderground v.1.15,2013-04-12 04:15:00,
2013-04-11 18:20:00,75.7,66.0,29.89,SW,225,0.0,-999.0,72,0.01,,,0.01,Wunderground v.1.15,2013-04-12 04:20:00,
2013-04-11 18:25:00,75.7,66.0,29.89,SW,225,0.0,-999.0,72,0.01,,,0.01,Wunderground v.1.15,2013-04-12 04:25:00,
2013-04-11 18:30:00,75.7,66.0,29.89,SW,225,0.0,-999.0,72,0.01,,,0.01,Wunderground v.1.15,2013-04-12 04:30:00,
2013-04-11 18:35:00,75.7,66.0,29.89,SW,225,0.0,-999.0,72,0.01,,,0.01,Wunderground v.1.15,2013-04-12 04:35:00,
2013-04-11 18:40:00,75.7,66.0,29.89,SW,225,0.0,-999.0,72,0.01,,,0.01,Wunderground v.1.15,2013-04-12 04:40:00,
2013-04-11 18:45:00,75.1,65.1,29.90,SW,225,0.0,-999.0,71,0.00,,,0.01,Wunderground v.1.15,2013-04-12 04:45:00,
2013-04-11 18:50:00,75.1,65.1,29.90,SW,225,0.0,-999.0,71,0.00,,,0.01,Wunderground v.1.15,2013-04-12 04:50:00,
2013-04-11 18:55:00,75.1,65.1,29.90,SW,225,0.0,-999.0,71,0.00,,,0.01,Wunderground v.1.15,2013-04-12 04:55:00,
2013-04-11 19:00:00,75.1,65.1,29.90,SW,225,0.0,-999.0,71,0.00,,,0.01,Wunderground v.1.15,2013-04-12 05:00:00,
2013-04-11 19:05:00,75.1,65.1,29.90,SW,225,0.0,-999.0,71,0.00,,,0.01,Wunderground v.1.15,2013-04-12 05:05:00,
2013-04-11 19:10:00,75.1,65.1,29.90,SW,225,0.0,-999.0,71,0.00,,,0.01,Wunderground v.1.15,2013-04-12 05:10:00,
2013-04-11 19:15:00,73.5,63.9,29.90,SSE,158,1.0,-999.0,72,0.00,,,0.01,Wunderground v.1.15,2013-04-12 05:15:00,
2013-04-11 19:20:00,73.5,63.9,29.90,SSE,158,1.0,-999.0,72,0.00,,,0.01,Wunderground v.1.15,2013-04-12 05:20:00,
2013-04-11 19:25:00,73.5,63.9,29.90,SSE,158,1.0,-999.0,72,0.00,,,0.01,Wunderground v.1.15,2013-04-12 05:25:00,
2013-04-11 19:30:00,73.5,63.9,29.90,SSE,158,1.0,-999.0,72,0.00,,,0.01,Wunderground v.1.15,2013-04-12 05:30:00,
2013-04-11 19:35:00,73.5,63.9,29.90,SSE,158,1.0,-999.0,72,0.00,,,0.01,Wunderground v.1.15,2013-04-12 05:35:00,
2013-04-11 19:40:00,73.5,63.9,29.90,SSE,158,1.0,-999.0,72,0.00,,,0.01,Wunderground v.1.15,2013-04-12 05:40:00,
2013-04-11 19:45:00,72.1,63.4,29.91,SSE,158,1.0,-999.0,74,0.00,,,0.01,Wunderground v.1.15,2013-04-12 05:45:00,
2013-04-11 19:50:00,72.1,63.4,29.91,SSE,158,1.0,-999.0,74,0.00,,,0.01,Wunderground v.1.15,2013-04-12 05:50:00,
2013-04-11 19:55:00,72.1,63.4,29.91,SSE,158,1.0,-999.0,74,0.00,,,0.01,Wunderground v.1.15,2013-04-12 05:55:00,
2013-04-11 20:00:00,72.1,63.4,29.91,SSE,158,1.0,-999.0,74,0.00,,,0.01,Wunderground v.1.15,2013-04-12 06:00:00,
2013-04-11 20:05:00,72.1,63.4,29.91,SSE,158,1.0,-999.0,74,0.00,,,0.01,Wunderground v.1.15,2013-04-12 06:05:00,
2013-04-11 20:10:00,72.1,63.4,29.91,SSE,158,1.0,-999.0,74,0.00,,,0.01,Wunderground v.1.15,2013-04-12 06:10:00,
2013-04-11 20:15:00,71.4,62.7,29.91,SE,135,2.0,-999.0,74,0.00,,,0.01,Wunderground v.1.15,2013-04-12 06:15:00,
2013-04-11 20:20:00,71.4,62.7,29.91,SE,135,2.0,-999.0,74,0.00,,,0.01,Wunderground v.1.15,2013-04-12 06:20:00,
2013-04-11 20:25:00,71.4,62.7,29.91,SE,135,2.0,-999.0,74,0.00,,,0.01,Wunderground v.1.15,2013-04-12 06:25:00,
2013-04-11 20:30:00,71.4,62.7,29.91,SE,135,2.0,-999.0,74,0.00,,,0.01,Wunderground v.1.15,2013-04-12 06:30:00,
2013-04-11 20:35:00,71.4,62.7,29.91,SE,135,2.0,-999.0,74,0.00,,,0.01,Wunderground v.1.15,2013-04-12 06:35:00,
2013-04-11 20:40:00,71.4,62.7,29.91,SE,135,2.0,-999.0,74,0.00,,,0.01,Wunderground v.1.15,2013-04-12 06:40:00,
2013-04-11 20:45:00,70.7,62.0,29.91,SE,135,3.0,-999.0,74,0.00,,,0.01,Wunderground v.1.15,2013-04-12 06:45:00,
2013-04-11 20:50:00,70.7,62.0,29.91,SE,135,3.0,-999.0,74,0.00,,,0.01,Wunderground v.1.15,2013-04-12 06:50:00,
2013-04-11 20:55:00,70.7,62.0,29.91,SE,135,3.0,-999.0,74,0.00,,,0.01,Wunderground v.1.15,2013-04-12 06:55:00,
2013-04-11 21:00:00,70.7,62.0,29.91,SE,135,3.0,-999.0,74,0.00,,,0.01,Wunderground v.1.15,2013-04-12 07:00:00,
2013-04-11 21:05:00,70.7,62.0,29.91,SE,135,3.0,-999.0,74,0.00,,,0.01,Wunderground v.1.15,2013-04-12 07:05:00,
2013-04-11 21:10:00,70.7,62.0,29.91,SE,135,3.0,-999.0,74,0.00,,,0.01,Wunderground v.1.15,2013-04-12 07:10:00,
2013-04-11 21:15:00,70.7,61.6,29.92,SE,135,2.0,-999.0,73,0.00,,,0.01,Wunderground v.1.15,2013-04-12 07:15:00,
2013-04-11 21:20:00,70.7,61.6,29.92,SE,135,2.0,-999.0,73,0.00,,,0.01,Wunderground v.1.15,2013-04-12 07:20:00,
2013-04-11 21:25:00,70.7,61.6,29.92,SE,135,2.0,-999.0,73,0.00,,,0.01,Wunderground v.1.15,2013-04-12 07:25:00,
2013-04-11 21:30:00,70.7,61.6,29.92,SE,135,2.0,-999.0,73,0.00,,,0.01,Wunderground v.1.15,2013-04-12 07:30:00,
2013-04-11 21:35:00,70.7,61.6,29.92,SE,135,2.0,-999.0,73,0.00,,,0.01,Wunderground v.1.15,2013-04-12 07:35:00,
2013-04-11 21:40:00,70.7,61.6,29.92,SE,135,2.0,-999.0,73,0.00,,,0.01,Wunderground v.1.15,2013-04-12 07:40:00,
2013-04-11 21:45:00,70.1,61.4,29.92,ESE,113,1.0,-999.0,74,0.00,,,0.01,Wunderground v.1.15,2013-04-12 07:45:00,
2013-04-11 21:50:00,70.1,61.4,29.92,ESE,113,1.0,-999.0,74,0.00,,,0.01,Wunderground v.1.15,2013-04-12 07:50:00,
2013-04-11 21:55:00,70.1,61.4,29.92,ESE,113,1.0,-999.0,74,0.00,,,0.01,Wunderground v.1.15,2013-04-12 07:55:00,
2013-04-11 22:00:00,70.1,61.4,29.92,ESE,113,1.0,-999.0,74,0.00,,,0.01,Wunderground v.1.15,2013-04-12 08:00:00,
2013-04-11 22:05:00,70.1,61.4,29.92,ESE,113,1.0,-999.0,74,0.00,,,0.01,Wunderground v.1.15,2013-04-12 08:05:00,
2013-04-11 22:10:00,70.1,61.4,29.92,ESE,113,1.0,-999.0,74,0.00,,,0.01,Wunderground v.1.15,2013-04-12 08:10:00,
2013-04-11 22:15:00,69.5,61.2,29.92,ESE,113,1.0,-999.0,75,0.00,,,0.01,Wunderground v.1.15,2013-04-12 08:15:00,
2013-04-11 22:20:00,69.5,61.2,29.92,ESE,113,1.0,-999.0,75,0.00,,,0.01,Wunderground v.1.15,2013-04-12 08:20:00,
2013-04-11 22:25:00,69.5,61.2,29.92,ESE,113,1.0,-999.0,75,0.00,,,0.01,Wunderground v.1.15,2013-04-12 08:25:00,
2013-04-11 22:30:00,69.5,61.2,29.92,ESE,113,1.0,-999.0,75,0.00,,,0.01,Wunderground v.1.15,2013-04-12 08:30:00,
2013-04-11 22:35:00,69.5,61.2,29.92,ESE,113,1.0,-999.0,75,0.00,,,0.01,Wunderground v.1.15,2013-04-12 08:35:00,
2013-04-11 22:40:00,69.5,61.2,29.92,ESE,113,1.0,-999.0,75,0.00,,,0.01,Wunderground v.1.15,2013-04-12 08:40:00,
2013-04-11 22:45:00,68.4,60.5,29.92,ESE,113,0.0,-999.0,76,0.00,,,0.01,Wunderground v.1.15,2013-04-12 08:45:00,
2013-04-11 22:50:00,68.4,60.5,29.92,ESE,113,0.0,-999.0,76,0.00,,,0.01,Wunderground v.1.15,2013-04-12 08:50:00,
2013-04-11 22:55:00,68.4,60.5,29.92,ESE,113,0.0,-999.0,76,0.00,,,0.01,Wunderground v.1.15,2013-04-12 08:55:00,
2013-04-11 23:00:00,68.4,60.5,29.92,ESE,113,0.0,-999.0,76,0.00,,,0.01,Wunderground v.1.15,2013-04-12 09:00:00,
2013-04-11 23:05:00,68.4,60.5,29.92,ESE,113,0.0,-999.0,76,0.00,,,0.01,Wunderground v.1.15,2013-04-12 09:05:00,
2013-04-11 23:10:00,68.4,60.5,29.92,ESE,113,0.0,-999.0,76,0.00,,,0.01,Wunderground v.1.15,2013-04-12 09:10:00,
2013-04-11 23:15:00,69.4,60.8,29.92,ESE,113,1.0,-999.0,74,0.00,,,0.01,Wunderground v.1.15,2013-04-12 09:15:00,
2013-04-11 23:20:00,69.4,60.8,29.92,ESE,113,1.0,-999.0,74,0.00,,,0.01,Wunderground v.1.15,2013-04-12 09:20:00,
2013-04-11 23:25:00,69.4,60.8,29.92,ESE,113,1.0,-999.0,74,0.00,,,0.01,Wunderground v.1.15,2013-04-12 09:25:00,
2013-04-11 23:30:00,69.4,60.8,29.92,ESE,113,1.0,-999.0,74,0.00,,,0.01,Wunderground v.1.15,2013-04-12 09:30:00,
2013-04-11 23:35:00,69.4,60.8,29.92,ESE,113,1.0,-999.0,74,0.00,,,0.01,Wunderground v.1.15,2013-04-12 09:35:00,
2013-04-11 23:40:00,69.4,60.8,29.92,ESE,113,1.0,-999.0,74,0.00,,,0.01,Wunderground v.1.15,2013-04-12 09:40:00,
2013-04-11 23:45:00,70.3,61.6,29.91,ESE,113,2.0,-999.0,74,0.00,,,0.01,Wunderground v.1.15,2013-04-12 09:45:00,
2013-04-11 23:50:00,70.3,61.6,29.91,ESE,113,2.0,-999.0,74,0.00,,,0.01,Wunderground v.1.15,2013-04-12 09:50:00,
2013-04-11 23:55:00,70.3,61.6,29.91,ESE,113,2.0,-999.0,74,0.00,,,0.01,Wunderground v.1.15,2013-04-12 09:55:00,